Location: Boiro
(42.6475°N, 8.8834°W)
Time: 18:17:55
(UTC+01:00)

Altair - Pass Details

Date: 01 December 2021
Orbit: 1501 x 1683 km, 47.2° (Epoch: 25 January)

Event Time Altitude Azimuth Distance (km) Brightness Sun altitude
Rises 02:15:16 0° 289° (WNW) 4,636 - -66.6°
Reaches altitude 10° 02:19:34 10° 272° (W) 3,655 - -66.2°
Maximum altitude 02:25:01 18° 234° (SW) 3,108 - -65.6°
Drops below altitude 10° 02:30:32 10° 197° (SSW) 3,689 - -65.0°
Sets 02:34:58 0° 179° (S) 4,697 - -64.5°
